[[{"header":{"parameterUnit":"m.s-1","parameterCategory":1,"la1":30.2991,"la2":30.254,"lo1":-89.0895,"lo2":-89.0444,"dy":0.0017,"dx":0.0017,"nx":28,"ny":28,"refTime":"2025-06-14T21:00:00:Z","depth":0,"parameterNumber":2,"parameterNumberName":"U-component_of_WINDS"},"data":[0,0,0,0,0,0,0,0,0,0,0,0,0,0,0,0,0,0,0,0,0,0,0,0,0,0,0,0,0,0,0,0,0,0,0,0,0,0,0,0,0,0,0,0,0,0,0,0,0,0,0,0,0,0,0,0,0,0,0.2555,0.2556,0,0.2656,0.2657,0.2658,0.2713,0.2713,0.2713,0.2713,0.2821,0.2824,0.2827,0,0,0,0,0,0,0,0,0,0,0,0,0,0.2415,0.2418,0.2555,0.2556,0.2557,0.2655,0.2657,0.2658,0.2713,0.2713,0.2713,0.2713,0.282,0.2824,0.2827,0,0,0,0,0,0,0,0,0,0,0,0,0,0.2492,0.2418,0.2554,0.2596,0.2601,0.2655,0.2657,0.2659,0.2713,0.2713,0.2713,0.2713,0.2819,0.2823,0.2828,0.285,0,0,0.284,0.2842,0,0,0,0,0,0,0,0,0.2488,0.2497,0.2589,0.2593,0.2599,0.2672,0.2648,0.2723,0.2713,0.267,0.2713,0.2713,0.2772,0.278,0.2799,0.2855,0.286,0.2841,0.2843,0.2845,0.2846,0,0,0,0,0,0,0,0.2482,0.2493,0.2595,0.259,0.2596,0.2612,0.2623,0.2662,0.2719,0.2674,0.2678,0.2689,0.2775,0.2794,0.2802,0.2861,0.2841,0.2844,0.2847,0.2848,0.2944,0.2944,0,0,0,0,0,0,0.2469,0.2488,0.2592,0.2598,0.2542,0.2614,0.2627,0.2648,0.2719,0.2729,0.2689,0.2691,0.2787,0.2797,0.2806,0.2838,0.2845,0.2849,0.2851,0.2944,0.2944,0.2944,0,0,0,0,0,0,0.2466,0.2478,0.2588,0.2544,0.2559,0.2616,0.264,0.265,0.267,0.273,0.2741,0.2698,0.2788,0.28,0.2839,0.2842,0.2851,0.2855,0.2944,0.2944,0.2944,0.2901,0,0,0,0,0,0,0.2462,0.2477,0.2484,0.2544,0.2561,0.2617,0.264,0.2652,0.2676,0.268,0.2742,0.2752,0.2789,0.2832,0.2843,0.2848,0.2858,0.2944,0.2944,0.2944,0.2903,0.29,0.2897,0,0,0,0,0,0.2457,0.2468,0.2484,0.2496,0.2571,0.2617,0.2627,0.2668,0.2676,0.2685,0.2724,0.275,0.284,0.2836,0.2848,0.2855,0.2944,0.2944,0.2944,0.2904,0.29,0.2898,0,0,0,0,0,0,0.2409,0.2477,0.2495,0.2526,0.2565,0.2626,0.2638,0.2662,0.2701,0.2703,0.2754,0.2768,0.2802,0.2833,0.2826,0.2882,0.2895,0.2897,0.286,0.2857,0.2855,0.2847,0.2861,0,0,0,0,0,0.2401,0.243,0.249,0.2511,0.253,0.2581,0.2602,0.263,0.2673,0.269,0.2732,0.2774,0.2813,0.2837,0.2875,0.2908,0.2923,0.2919,0.2916,0.2914,0.2915,0.2937,0.2936,0.2944,0.2944,0.2944,0,0,0.2387,0.2428,0.2443,0.2503,0.2536,0.2568,0.2594,0.2626,0.265,0.2696,0.2735,0.2767,0.2818,0.2854,0.2872,0.2881,0.2917,0.2914,0.2911,0.2915,0.2937,0.2936,0.2935,0.2944,0.2944,0.2944,0,0,0.2377,0.241,0.2432,0.2466,0.2516,0.255,0.2555,0.2613,0.2636,0.2676,0.2711,0.2742,0.2806,0.2842,0.2868,0.2874,0.29,0.2885,0.2872,0.2892,0.2892,0.2892,0.2895,0.2895,0.2887,0.2887,0.2887,0,0.2353,0.2399,0.2441,0.2471,0.2497,0.2539,0.2564,0.2595,0.2655,0.2674,0.2682,0.2764,0.2802,0.2848,0.2849,0.2869,0.2878,0.2878,0.2888,0.2888,0.2889,0.2893,0.2894,0.2885,0.2885,0.2885,0.2885,0,0.2369,0.2401,0.2413,0.247,0.2497,0.2524,0.2573,0.2596,0.2623,0.2656,0.2698,0.2744,0.2794,0.2807,0.2833,0.2857,0.2861,0.2878,0.2893,0.2885,0.289,0.2892,0.2882,0.2883,0.2883,0.2884,0,0,0.2329,0.241,0.2414,0.2441,0.25,0.2527,0.2558,0.2604,0.2624,0.2666,0.2694,0.2748,0.2764,0.2794,0.2825,0.2843,0.2847,0.2859,0.2861,0.2856,0.2879,0.2866,0.2867,0.2864,0.2865,0.2865,0.2875,0,0.2328,0.2382,0.2422,0.2462,0.2494,0.2535,0.2562,0.2603,0.2636,0.2669,0.2707,0.2745,0.2763,0.2782,0.2801,0.2842,0.2852,0.2842,0.2893,0.2894,0.2879,0.2869,0.2855,0.2862,0.2877,0.2877,0.2877,0,0.2334,0.2373,0.2415,0.2473,0.2488,0.2511,0.2559,0.2589,0.2638,0.2661,0.2695,0.2727,0.2764,0.2775,0.2827,0.2819,0.2843,0.2866,0.2868,0.2874,0.2885,0.2876,0.2865,0.2866,0.2881,0.288,0.288,0,0.2302,0.2366,0.24,0.2422,0.249,0.2506,0.2535,0.2583,0.261,0.2652,0.267,0.2717,0.2742,0.2779,0.2824,0.2827,0.2872,0.2886,0.2894,0.2893,0.2901,0.29,0.2894,0.2915,0.2915,0.2915,0.2915,0,0.2297,0.2322,0.2387,0.2408,0.2438,0.2485,0.2514,0.2547,0.259,0.262,0.266,0.2688,0.2745,0.278,0.2816,0.2855,0.2866,0.2888,0.2897,0.2884,0.2882,0.2901,0.2902,0.2916,0.2916,0.2916,0.2916,0,0.2267,0.2311,0.2351,0.2413,0.2429,0.2448,0.2502,0.2526,0.2562,0.2599,0.2611,0.2668,0.2712,0.276,0.2821,0.2845,0.2882,0.2895,0.2865,0.2871,0.2876,0.2875,0.2882,0.2886,0.2904,0.2903,0.2903,0,0.2261,0.2281,0.2344,0.2367,0.2395,0.243,0.2458,0.2506,0.2533,0.259,0.2607,0.2654,0.2694,0.2763,0.2811,0.2859,0.2873,0.2873,0.2881,0.2868,0.2875,0.2873,0.2876,0.287,0.287,0.2869,0.2869,0,0.2245,0.2267,0.2303,0.2349,0.238,0.2418,0.2458,0.2474,0.2531,0.256,0.2605,0.2636,0.2698,0.2744,0.2798,0.2831,0.286,0.2866,0.2871,0.2858,0.2841,0.2851,0.2859,0.2866,0.2866,0.2866,0.2867,0.2867,0.2228,0.2248,0.2297,0.2337,0.2372,0.2409,0.2434,0.2473,0.2511,0.2564,0.2591,0.2636,0.2687,0.2762,0.2794,0.2832,0.2841,0.2847,0.2849,0.2849,0.2847,0.2834,0.2842,0.2842,0.2842,0.2842,0.2842,0,0.2216,0.2249,0.2286,0.234,0.2373,0.2396,0.2442,0.2468,0.2507,0.2551,0.259,0.2643,0.2689,0.2741,0.2791,0.2811,0.2826,0.2823,0.2822,0.283,0.2835,0.2827,0.281,0.281,0.281,0.281,0.281,0.281,0.2213,0.2249,0.2277,0.2332,0.2366,0.241,0.2434,0.2469,0.2505,0.2562,0.26,0.2633,0.2681,0.2735,0.278,0.2794,0.2811,0.2804,0.2822,0.2826,0.2829,0.2832,0.2824,0.2807,0.2807,0.2814,0.2814,0.2814]},{"header":{"parameterUnit":"m.s-1","parameterCategory":1,"la1":30.2991,"la2":30.254,"lo1":-89.0895,"lo2":-89.0444,"dy":0.0017,"dx":0.0017,"nx":28,"ny":28,"refTime":"2025-06-14T21:00:00:Z","depth":0,"parameterNumber":3,"parameterNumberName":"V-component_of_WINDS"},"data":[0,0,0,0,0,0,0,0,0,0,0,0,0,0,0,0,0,0,0,0,0,0,0,0,0,0,0,0,0,0,0,0,0,0,0,0,0,0,0,0,0,0,0,0,0,0,0,0,0,0,0,0,0,0,0,0,0,0,3.544,3.544,0,3.5437,3.5437,3.5437,3.5425,3.5425,3.5424,3.5424,3.5421,3.5422,3.5422,0,0,0,0,0,0,0,0,0,0,0,0,0,3.5433,3.5433,3.544,3.544,3.544,3.5437,3.5437,3.5437,3.5425,3.5425,3.5424,3.5424,3.5421,3.5422,3.5422,0,0,0,0,0,0,0,0,0,0,0,0,0,3.5434,3.5433,3.544,3.5433,3.5433,3.5437,3.5437,3.5437,3.5425,3.5425,3.5424,3.5424,3.5421,3.5422,3.5422,3.5433,0,0,3.5423,3.5423,0,0,0,0,0,0,0,0,3.5434,3.5434,3.5434,3.5434,3.5433,3.5431,3.5434,3.5436,3.5425,3.5428,3.5424,3.5424,3.5425,3.5425,3.5426,3.5433,3.5433,3.5423,3.5423,3.5423,3.5423,0,0,0,0,0,0,0,3.5434,3.5434,3.5439,3.5434,3.5433,3.543,3.543,3.5434,3.5429,3.5428,3.5427,3.5427,3.5425,3.5425,3.5425,3.5432,3.5423,3.5423,3.5423,3.5424,3.5448,3.5448,0,0,0,0,0,0,3.5435,3.5434,3.5439,3.5439,3.5432,3.5431,3.543,3.5432,3.5429,3.5428,3.5427,3.5426,3.5425,3.5425,3.5425,3.5437,3.5423,3.5424,3.5424,3.5447,3.5448,3.5448,0,0,0,0,0,0,3.5435,3.5435,3.5439,3.5436,3.5436,3.5431,3.5433,3.5432,3.5433,3.5428,3.5427,3.5429,3.5425,3.5425,3.5431,3.5437,3.5424,3.5424,3.5447,3.5447,3.5448,3.5461,0,0,0,0,0,0,3.5434,3.5435,3.5439,3.5436,3.5437,3.5445,3.5434,3.5433,3.5433,3.5432,3.543,3.5429,3.5424,3.543,3.5431,3.5437,3.5424,3.5446,3.5447,3.5448,3.546,3.5462,3.5464,0,0,0,0,0,3.5434,3.5443,3.544,3.544,3.5442,3.5445,3.5445,3.544,3.5434,3.5438,3.5435,3.5429,3.5436,3.5431,3.5432,3.5438,3.5446,3.5447,3.5448,3.5459,3.5462,3.5464,0,0,0,0,0,0,3.5447,3.5443,3.5439,3.5447,3.5447,3.5443,3.5448,3.5443,3.5444,3.5442,3.5436,3.5435,3.5442,3.5441,3.5435,3.5448,3.544,3.5441,3.5448,3.5451,3.5452,3.5452,3.5424,0,0,0,0,0,3.5451,3.5454,3.545,3.5458,3.5458,3.5453,3.5454,3.545,3.5449,3.5449,3.5446,3.5446,3.5448,3.5449,3.5451,3.546,3.5459,3.5464,3.5466,3.5468,3.5469,3.5473,3.5475,3.5452,3.5452,3.5451,0,0,3.5459,3.5457,3.5459,3.546,3.546,3.5463,3.5453,3.5457,3.5459,3.5449,3.5455,3.5453,3.5452,3.5459,3.5462,3.5458,3.5475,3.5469,3.547,3.547,3.5474,3.5476,3.5478,3.5452,3.5452,3.5452,0,0,3.5475,3.5474,3.548,3.5479,3.5478,3.5474,3.5476,3.5473,3.5471,3.5477,3.547,3.5472,3.5476,3.5475,3.5475,3.5491,3.5485,3.5491,3.5501,3.5505,3.5507,3.5508,3.5513,3.5515,3.5492,3.5493,3.5493,0,3.5485,3.5489,3.5484,3.5488,3.5488,3.548,3.5486,3.5485,3.5485,3.5485,3.5481,3.5485,3.5483,3.549,3.5494,3.5495,3.5496,3.5491,3.5507,3.5509,3.551,3.5514,3.5516,3.5493,3.5493,3.5493,3.5493,0,3.5501,3.5504,3.5509,3.5509,3.551,3.5515,3.551,3.5512,3.5507,3.5504,3.551,3.5508,3.5509,3.551,3.5506,3.5516,3.5514,3.5508,3.55,3.5513,3.5517,3.5519,3.5494,3.5494,3.5494,3.5494,0,0,3.5524,3.5521,3.5522,3.5522,3.552,3.5522,3.5527,3.5527,3.5529,3.5529,3.5532,3.5535,3.553,3.553,3.5526,3.553,3.5541,3.5524,3.5524,3.5527,3.5551,3.5555,3.5557,3.5538,3.5538,3.5538,3.5551,0,3.5539,3.5546,3.5541,3.5549,3.5552,3.5544,3.5548,3.5547,3.5544,3.5546,3.5543,3.5546,3.5539,3.5539,3.5542,3.5539,3.5546,3.5538,3.554,3.554,3.554,3.5559,3.5563,3.5576,3.5553,3.5553,3.5553,0,3.5557,3.5557,3.5565,3.5562,3.5563,3.5567,3.5567,3.5569,3.5567,3.5565,3.5565,3.556,3.5564,3.5557,3.5562,3.5557,3.5557,3.5556,3.5556,3.5556,3.5547,3.5559,3.5579,3.5581,3.5556,3.5556,3.5556,0,3.5572,3.5575,3.558,3.558,3.5576,3.5579,3.5578,3.5576,3.5577,3.5577,3.5577,3.5578,3.5578,3.5579,3.5574,3.5569,3.5579,3.5572,3.5577,3.5577,3.5579,3.5579,3.56,3.5581,3.5581,3.5581,3.5581,0,3.5588,3.5593,3.5586,3.559,3.5595,3.5589,3.5595,3.5593,3.5591,3.5594,3.5587,3.559,3.5583,3.5585,3.5581,3.5586,3.5586,3.5584,3.5583,3.5585,3.5585,3.5584,3.5583,3.5581,3.5581,3.5581,3.5581,0,3.5606,3.5601,3.5606,3.5603,3.5602,3.5606,3.5603,3.5606,3.5603,3.5606,3.5606,3.5602,3.5603,3.5599,3.56,3.5597,3.5604,3.5601,3.5604,3.5603,3.5609,3.5608,3.563,3.5632,3.5612,3.5612,3.5612,0,3.5616,3.562,3.5617,3.5618,3.5617,3.5619,3.5619,3.5614,3.5615,3.5613,3.5616,3.5617,3.5618,3.5621,3.5617,3.5618,3.5615,3.5623,3.5615,3.5616,3.5615,3.5614,3.5614,3.5624,3.5624,3.5624,3.5625,0,3.5634,3.5632,3.5633,3.5633,3.5634,3.5634,3.5634,3.5635,3.5629,3.5631,3.5632,3.5632,3.5633,3.5634,3.5634,3.5633,3.5628,3.5627,3.5628,3.5629,3.5631,3.563,3.5607,3.5626,3.5626,3.5626,3.5626,3.5626,3.5648,3.5651,3.5649,3.565,3.565,3.5649,3.5651,3.5649,3.565,3.565,3.5647,3.5649,3.5647,3.5646,3.5646,3.5647,3.5644,3.5646,3.5646,3.5646,3.5647,3.5631,3.5647,3.5647,3.5647,3.5647,3.5647,0,3.5666,3.5664,3.5666,3.5665,3.5666,3.5661,3.566,3.5661,3.5663,3.5662,3.5663,3.5664,3.5665,3.5662,3.5662,3.5664,3.5662,3.5665,3.5664,3.5664,3.565,3.5649,3.5666,3.5666,3.5666,3.5666,3.5666,3.5666,3.5675,3.5679,3.5677,3.568,3.5679,3.5681,3.5681,3.568,3.5679,3.5681,3.5682,3.568,3.5678,3.5678,3.5678,3.5677,3.5678,3.5681,3.5679,3.5667,3.5665,3.5663,3.5661,3.5681,3.5681,3.5692,3.5692,3.5692]}]]